Weather History for San Jose, Costa Rica

Change the Weather History Date:

Monday, March 3, 2014

  Actual Average Record
Temperature  
Mean Temperature 74 °F -  
Max Temperature 82 °F 83 °F 89 °F (1998)
Min Temperature 66 °F 64 °F 59 °F (1999)
Cooling Degree Days 9    
Growing Degree Days 24 (Base 50)    
Moisture  
Dew Point 58 °F    
Average Humidity 57    
Maximum Humidity 73    
Minimum Humidity 38    
Precipitation  
Precipitation 0.00 in 0.03 in - ()
Sea Level Pressure  
Sea Level Pressure 29.94 in    
Wind  
Wind Speed 12 mph ()    
Max Wind Speed 17 mph    
Max Gust Speed 28 mph    
Visibility 7.9 miles    
Events      
Averages and records for this station are not official NWS values.
T = Trace of Precipitation, MM = Missing Value Source: Averaged Metar Reports

Daily Weather History Graph

Daily Weather History Graph

Search for Another Location

Airport:

Trip Planner

Search our weather history database for the weather conditions in past years. The results will help you decide how hot, cold, wet, or windy it might be!

Date:

Astronomy

Mar. 03, 2014 Rise Set
Actual Time 5:50 AM CST 5:47 PM CST
Civil Twilight 5:29 AM CST 6:08 PM CST
Nautical Twilight 5:04 AM CST 6:33 PM CST
Astronomical Twilight 4:40 AM CST 6:57 PM CST
Moon 7:32 AM CST (3/3) 8:08 PM CST (3/3)
Length of Visible Light 12h 39m
Length of Day
11h 57m
Waxing Crescent, 8% of the Moon is Illuminated
Mar 3
Waxing Crescent
Mar 8
First Quarter
Mar 16
Full
Mar 23
Last Quarter
Mar 30
New

Hourly Weather History & Observations

Time (CST) Temp. Heat Index Dew Point Humidity Pressure Visibility Wind Dir Wind Speed Gust Speed Precip Events Conditions
12:00 AM 69 °F - - %  in 12 mi East 15.0 mph - -   Partly Cloudy
12:00 AM 69.8 °F - 57.2 °F 64% 30.02 in - East 15.0 mph - N/A   Clear
1:00 AM 68.0 °F - 59.0 °F 73% 29.99 in - ESE 13.8 mph - N/A   Clear
2:00 AM 68.0 °F - 57.2 °F 68% 29.96 in - ESE 16.1 mph - N/A   Clear
3:00 AM 69 °F - 55 °F 51% 29.76 in 12 mi East 16.1 mph - -  
3:00 AM 69.8 °F - 55.4 °F 60% 29.95 in - East 16.1 mph 27.6 mph N/A   Clear
4:00 AM 68.0 °F - 57.2 °F 68% 29.95 in - North - - N/A   Clear
5:00 AM 68 °F - - % 29.82 in 12 mi Calm Calm - -   Scattered Clouds
5:00 AM 68.0 °F - 57.2 °F 68% 29.96 in 6.2 mi ESE 13.8 mph - N/A   Partly Cloudy
6:00 AM 68.0 °F - 57.2 °F 68% 29.98 in 6.2 mi East 11.5 mph 23.0 mph N/A   Scattered Clouds
7:00 AM 69.8 °F - 57.2 °F 64% 30.00 in 6.2 mi East 10.4 mph - N/A   Mostly Cloudy
8:00 AM 71.6 °F - 57.2 °F 60% 30.02 in 6.2 mi East 12.7 mph - N/A   Mostly Cloudy
9:00 AM 75 °F - 57 °F 43% 29.86 in 12 mi ESE 12.7 mph - -   Scattered Clouds
9:00 AM 75.2 °F - 57.2 °F 53% 30.02 in 6.2 mi ESE 12.7 mph - N/A   Mostly Cloudy
10:00 AM 77.0 °F - 57.2 °F 50% 30.02 in 6.2 mi East 15.0 mph - N/A   Scattered Clouds
11:00 AM 80.6 °F 80.8 °F 57.2 °F 45% 30.01 in 6.2 mi ESE 13.8 mph - N/A   Mostly Cloudy
12:00 PM 78 °F - 57 °F 38% 29.82 in 12 mi East 12.7 mph - -   Scattered Clouds
12:00 PM 78.8 °F - 57.2 °F 47% 30.00 in 6.2 mi East 12.7 mph - N/A   Mostly Cloudy
1:00 PM 78.8 °F - 57.2 °F 47% 29.98 in 6.2 mi East 13.8 mph - N/A   Mostly Cloudy
2:00 PM 80.6 °F 80.5 °F 55.4 °F 42% 29.95 in 6.2 mi East 10.4 mph - N/A   Mostly Cloudy
3:00 PM 81 °F - 69 °F 59% 29.74 in 12 mi ESE 10.4 mph - -   Scattered Clouds
3:00 PM 80.6 °F 80.5 °F 55.4 °F 42% 29.93 in 6.2 mi ESE 10.4 mph - N/A   Mostly Cloudy
4:00 PM 78.8 °F - 57.2 °F 47% 29.93 in 6.2 mi East 11.5 mph - N/A   Mostly Cloudy
5:00 PM 77.0 °F - 57.2 °F 50% 29.94 in 6.2 mi East 11.5 mph - N/A   Mostly Cloudy
6:00 PM 73 °F - 58 °F 51% 29.80 in 12 mi East 9.2 mph - -   Scattered Clouds
6:00 PM 73.4 °F - 59.0 °F 61% 29.96 in 6.2 mi East 9.2 mph - N/A   Mostly Cloudy
7:00 PM 71.6 °F - 59.0 °F 64% 29.98 in 6.2 mi East 10.4 mph - N/A   Mostly Cloudy
8:00 PM 69.8 °F - 57.2 °F 64% 30.00 in 6.2 mi ESE 9.2 mph - N/A   Scattered Clouds
9:00 PM 69 °F - 58 °F 60% 29.86 in 12 mi East 17.3 mph - -   Scattered Clouds
9:00 PM 69.8 °F - 59.0 °F 68% 30.02 in 6.2 mi East 17.3 mph - N/A   Partly Cloudy
10:00 PM 69.8 °F - 55.4 °F 60% 30.02 in 6.2 mi East 17.3 mph - N/A   Partly Cloudy
11:00 PM 68.0 °F - 57.2 °F 68% 30.02 in 6.2 mi East 11.5 mph 23.0 mph N/A   Partly Cloudy